EN

Hourly Weather Aberaeron

Today, 19 June, Saturday

Time Temperature Precipitation Wind Pressure Humidity
00:00 +13°C° 0 mm 1 mps 753 mmHg 92%
01:00 +13°C° 0 mm 1 mps 753 mmHg 93%
02:00 +12°C° 0 mm 1 mps 753 mmHg 93%
03:00 +12°C° 0 mm 1 mps 753 mmHg 94%
04:00 +13°C° 0.1 mm 1 mps 753 mmHg 93%
05:00 +13°C° 0.1 mm 1 mps 752 mmHg 93%
06:00 +13°C° 0.1 mm 2 mps 752 mmHg 93%
07:00 +14°C° 0.1 mm 2 mps 752 mmHg 90%
08:00 +13°C° 0.1 mm 3 mps 752 mmHg 87%
09:00 +14°C° 0.1 mm 3 mps 752 mmHg 84%
10:00 +16°C° 0.1 mm 3 mps 752 mmHg 80%
11:00 +17°C° 0.1 mm 3 mps 752 mmHg 76%
12:00 +18°C° 0.1 mm 3 mps 751 mmHg 73%
13:00 +18°C° 0.1 mm 3 mps 751 mmHg 74%
14:00 +18°C° 0.1 mm 3 mps 750 mmHg 75%
15:00 +18°C° 0.1 mm 3 mps 750 mmHg 76%
16:00 +17°C° 0.1 mm 3 mps 749 mmHg 78%
17:00 +17°C° 0.1 mm 3 mps 749 mmHg 81%
18:00 +16°C° 0.1 mm 3 mps 749 mmHg 83%
19:00 +16°C° 0.1 mm 2 mps 749 mmHg 86%
20:00 +15°C° 0.1 mm 2 mps 749 mmHg 89%
21:00 +14°C° 0.1 mm 2 mps 748 mmHg 91%
22:00 +14°C° 0.1 mm 2 mps 748 mmHg 93%
23:00 +14°C° 0.1 mm 2 mps 748 mmHg 94%

Tomorrow, 20 June, Sunday

Time Temperature Precipitation Wind Pressure Humidity
00:00 +14°C° 0.1 mm 2 mps 748 mmHg 95%
01:00 +14°C° 0 mm 2 mps 747 mmHg 95%
02:00 +13°C° 0 mm 3 mps 747 mmHg 95%
03:00 +13°C° 0 mm 3 mps 747 mmHg 95%
04:00 +13°C° 0 mm 3 mps 747 mmHg 95%
05:00 +13°C° 0 mm 4 mps 747 mmHg 96%
06:00 +13°C° 0 mm 4 mps 747 mmHg 96%
07:00 +13°C° 0.1 mm 4 mps 747 mmHg 95%
08:00 +13°C° 0.1 mm 4 mps 747 mmHg 95%
09:00 +13°C° 0.1 mm 4 mps 747 mmHg 94%
10:00 +13°C° 0.1 mm 4 mps 747 mmHg 93%
11:00 +13°C° 0.1 mm 4 mps 748 mmHg 93%
12:00 +14°C° 0.1 mm 4 mps 748 mmHg 92%
13:00 +14°C° 0 mm 4 mps 748 mmHg 92%
14:00 +14°C° 0 mm 4 mps 748 mmHg 92%
15:00 +14°C° 0 mm 4 mps 748 mmHg 92%
16:00 +14°C° 0 mm 4 mps 748 mmHg 92%
17:00 +14°C° 0 mm 4 mps 748 mmHg 92%
18:00 +14°C° 0 mm 5 mps 748 mmHg 92%
19:00 +13°C° 0 mm 5 mps 748 mmHg 92%
20:00 +13°C° 0 mm 5 mps 749 mmHg 92%
21:00 +13°C° 0 mm 5 mps 749 mmHg 92%
22:00 +13°C° 0.5 mm 4 mps 749 mmHg 93%
23:00 +12°C° 0.5 mm 4 mps 749 mmHg 94%

Day after tomorrow, 21 June, Monday

Time Temperature Precipitation Wind Pressure Humidity
00:00 +12°C° 0.5 mm 4 mps 749 mmHg 96%
01:00 +12°C° 1.2 mm 5 mps 749 mmHg 96%
02:00 +10°C° 1.2 mm 5 mps 749 mmHg 96%
03:00 +10°C° 1.2 mm 5 mps 749 mmHg 96%
04:00 +10°C° 1.4 mm 5 mps 749 mmHg 96%
05:00 +10°C° 1.4 mm 6 mps 749 mmHg 96%
06:00 +10°C° 1.4 mm 6 mps 750 mmHg 96%
07:00 +9°C° 1.3 mm 6 mps 750 mmHg 95%
08:00 +9°C° 1.3 mm 6 mps 750 mmHg 95%
09:00 +9°C° 1.3 mm 6 mps 750 mmHg 95%
10:00 +9°C° 0.9 mm 6 mps 751 mmHg 95%
11:00 +9°C° 0.9 mm 6 mps 751 mmHg 94%
12:00 +9°C° 0.9 mm 6 mps 751 mmHg 94%
13:00 +9°C° 1.3 mm 6 mps 751 mmHg 94%
14:00 +9°C° 1.3 mm 6 mps 751 mmHg 94%
15:00 +9°C° 1.3 mm 7 mps 752 mmHg 94%
16:00 +10°C° 0.9 mm 7 mps 752 mmHg 94%
17:00 +10°C° 0.9 mm 7 mps 752 mmHg 94%
18:00 +10°C° 0.9 mm 7 mps 753 mmHg 94%
19:00 +10°C° 0.3 mm 7 mps 753 mmHg 93%
20:00 +10°C° 0.3 mm 6 mps 753 mmHg 92%
21:00 +10°C° 0.3 mm 6 mps 754 mmHg 91%
22:00 +10°C° 0.2 mm 6 mps 754 mmHg 92%
23:00 +9°C° 0.2 mm 6 mps 754 mmHg 93%

22 June, Tuesday

Time Temperature Precipitation Wind Pressure Humidity
00:00 +9°C° 0.2 mm 5 mps 755 mmHg 94%
01:00 +9°C° 0.3 mm 5 mps 755 mmHg 94%
02:00 +9°C° 0.3 mm 6 mps 755 mmHg 94%
03:00 +9°C° 0.3 mm 6 mps 755 mmHg 93%
04:00 +9°C° 0.1 mm 6 mps 756 mmHg 92%
05:00 +8°C° 0.1 mm 6 mps 756 mmHg 91%
06:00 +8°C° 0.1 mm 6 mps 756 mmHg 90%
07:00 +9°C° 0 mm 6 mps 756 mmHg 85%
08:00 +10°C° 0 mm 6 mps 757 mmHg 81%
09:00 +11°C° 0 mm 6 mps 757 mmHg 76%
10:00 +13°C° 0 mm 6 mps 757 mmHg 73%
11:00 +14°C° 0 mm 6 mps 757 mmHg 70%
12:00 +15°C° 0 mm 5 mps 757 mmHg 67%
13:00 +15°C° 0 mm 5 mps 757 mmHg 66%
14:00 +15°C° 0 mm 6 mps 757 mmHg 66%
15:00 +16°C° 0 mm 6 mps 757 mmHg 65%
16:00 +15°C° 0 mm 6 mps 757 mmHg 69%
17:00 +15°C° 0 mm 5 mps 758 mmHg 72%
18:00 +15°C° 0 mm 5 mps 758 mmHg 76%
19:00 +13°C° 0 mm 5 mps 758 mmHg 79%
20:00 +12°C° 0 mm 4 mps 758 mmHg 81%
21:00 +11°C° 0 mm 4 mps 759 mmHg 84%
22:00 +10°C° 0 mm 3 mps 759 mmHg 86%
23:00 +10°C° 0 mm 3 mps 759 mmHg 88%

23 June, Wednesday

Time Temperature Precipitation Wind Pressure Humidity
00:00 +9°C° 0 mm 3 mps 759 mmHg 89%
01:00 +8°C° 0 mm 3 mps 759 mmHg 90%
02:00 +8°C° 0 mm 2 mps 759 mmHg 91%
03:00 +8°C° 0 mm 2 mps 759 mmHg 91%
04:00 +8°C° 0 mm 2 mps 759 mmHg 90%
05:00 +9°C° 0 mm 2 mps 759 mmHg 88%
06:00 +10°C° 0 mm 2 mps 759 mmHg 86%
07:00 +12°C° 0 mm 2 mps 759 mmHg 79%
08:00 +14°C° 0 mm 2 mps 759 mmHg 72%
09:00 +16°C° 0 mm 3 mps 759 mmHg 64%
10:00 +16°C° 0 mm 3 mps 759 mmHg 64%
11:00 +17°C° 0 mm 3 mps 759 mmHg 63%
12:00 +18°C° 0 mm 3 mps 759 mmHg 63%
13:00 +17°C° 0 mm 3 mps 759 mmHg 65%
14:00 +17°C° 0 mm 3 mps 759 mmHg 68%
15:00 +17°C° 0 mm 3 mps 759 mmHg 70%
16:00 +17°C° 0 mm 3 mps 759 mmHg 72%
17:00 +16°C° 0 mm 3 mps 759 mmHg 75%
18:00 +16°C° 0 mm 2 mps 759 mmHg 77%
19:00 +14°C° 0 mm 2 mps 759 mmHg 79%
20:00 +13°C° 0 mm 2 mps 759 mmHg 81%
21:00 +11°C° 0 mm 1 mps 759 mmHg 84%
22:00 +11°C° 0 mm 1 mps 759 mmHg 83%
23:00 +10°C° 0 mm 1 mps 759 mmHg 82%

24 June, Thursday

Time Temperature Precipitation Wind Pressure Humidity
00:00 +10°C° 0 mm 1 mps 759 mmHg 82%
01:00 +9°C° 0 mm 1 mps 759 mmHg 79%
02:00 +9°C° 0 mm 1 mps 758 mmHg 77%
03:00 +9°C° 0 mm 1 mps 758 mmHg 75%
04:00 +10°C° 0 mm 1 mps 758 mmHg 74%
05:00 +11°C° 0 mm 1 mps 758 mmHg 72%
06:00 +12°C° 0 mm 1 mps 758 mmHg 71%
07:00 +14°C° 0 mm 2 mps 757 mmHg 71%
08:00 +15°C° 0 mm 2 mps 757 mmHg 70%
09:00 +17°C° 0 mm 2 mps 757 mmHg 70%
10:00 +17°C° 0 mm 3 mps 757 mmHg 72%
11:00 +18°C° 0 mm 3 mps 756 mmHg 75%
12:00 +18°C° 0 mm 3 mps 756 mmHg 77%
13:00 +18°C° 0 mm 4 mps 756 mmHg 79%
14:00 +17°C° 0 mm 4 mps 756 mmHg 80%
15:00 +17°C° 0 mm 4 mps 755 mmHg 82%
16:00 +15°C° 0 mm 4 mps 755 mmHg 84%
17:00 +14°C° 0 mm 3 mps 755 mmHg 86%
18:00 +14°C° 0 mm 3 mps 755 mmHg 88%
19:00 +13°C° 0.2 mm 3 mps 755 mmHg 90%
20:00 +13°C° 0.2 mm 3 mps 755 mmHg 93%
21:00 +12°C° 0.2 mm 3 mps 754 mmHg 95%
22:00 +12°C° 0.4 mm 4 mps 754 mmHg 96%
23:00 +12°C° 0.4 mm 4 mps 754 mmHg 96%
Show more